Tracking 31027 objects as of 19-Jul-2025
HD Live streaming from Space Station
objects crossing your sky now

STARLINK-3992

Track STARLINK-3992 now!
10-day predictions
STARLINK-3992 is classified as:


NORAD ID: 52627
Int'l Code: 2022-052AF
Perigee: 546.1 km
Apogee: 547.7 km
Inclination: 53.2 °
Period: 95.4 minutes
Semi major axis: 6917 km
RCS: Unknown
Launch date: May 14, 2022
Source: United States (US)
Launch site: AIR FORCE EASTERN TEST RANGE (AFETR)
Your satellite tracking list
STARLINK-1243
Track 1 satellite(s)




NASA's NSSDC Master Catalog

Two Line Element Set (TLE):
1 52627U 22052AF  25199.49071324  .00000268  00000-0  34917-4 0  9993
2 52627  53.2162 240.4802 0001100  81.3836 278.7281 15.08837786176017
Source of the keplerian elements: AFSPC